Location: *
(35.2348°S, 91.3916°E)
Time: 17:38:46
(UTC+00:00)

Cosmos 1486 Rocket - Pass Details

Date: 23 October 2019
Orbit: 758 x 784 km, 74.1° (Epoch: 18 November)

Event Time Altitude Azimuth Distance (km) Brightness Sun altitude
Rises 22:05:27 0° 196° (SSW) 3,254 7.4 -11.6°
Reaches altitude 10° 22:07:51 10° 193° (SSW) 2,319 6.6 -11.2°
Maximum altitude 22:13:07 74° 108° (ESE) 800 4.3 -10.2°
Drops below altitude 10° 22:18:18 10° 23° (NNE) 2,287 6.5 -9.2°
Sets 22:20:39 0° 21° (NNE) 3,206 7.2 -8.7°
